Location: Melbourne
(37.8170°S, 144.9670°E)
Time: 19:51:59
(UTC+10:00)

Transit 2A - All Passes

Search period start: 27 August 2016 00:00
Search period end: 06 September 2016 00:00
Orbit: 592 x 968 km, 66.7° (Epoch: 26 August)

Date Brightness Start Highest point End Pass type
(mag) Time Alt. Az. Time Alt. Az. Time Alt. Az.
27 Aug - 05:44:54 10° SSW 05:49:30 47° ESE 05:54:31 10° NE visible
27 Aug - 07:28:55 10° WSW 07:32:23 19° WNW 07:36:03 10° NNW daylight
27 Aug - 20:23:45 10° NNW 20:28:13 56° ENE 20:32:30 10° SE visible
27 Aug - 22:09:10 10° W 22:11:40 15° SW 22:14:09 10° SSW night (unlit)
28 Aug - 05:11:12 10° S 05:15:28 32° SE 05:20:03 10° ENE visible
28 Aug - 06:54:19 10° SW 06:58:32 29° WNW 07:03:05 10° N daylight
28 Aug - 19:50:12 10° N 19:54:20 34° ENE 19:58:19 10° SE visible
28 Aug - 21:34:04 10° WNW 21:37:31 21° SW 21:40:53 10° S night (unlit)
29 Aug - 04:37:39 10° S 04:41:22 22° SE 04:45:19 10° ENE visible
29 Aug - 06:20:02 10° SW 06:24:39 44° WNW 06:29:42 10° N visible
29 Aug - 19:17:00 10° NNE 19:20:29 22° ENE 19:23:52 10° ESE visible
29 Aug - 20:59:24 10° WNW 21:03:25 32° SW 21:07:21 10° S visible
30 Aug - 04:04:22 10° SSE 04:07:13 15° SE 04:10:11 10° E visible
30 Aug - 05:45:55 10° SSW 05:50:44 69° WNW 05:56:02 10° NNE visible
30 Aug - 18:44:25 10° NE 18:46:41 14° ENE 18:48:54 10° ESE visible
30 Aug - 20:25:01 10° NW 20:29:23 49° WSW 20:33:38 10° SSE visible
31 Aug - 03:31:53 10° SSE 03:32:59 11° SE 03:34:07 10° ESE visible
31 Aug - 05:11:56 10° SSW 05:16:47 79° ESE 05:22:07 10° NNE visible
31 Aug - 06:58:05 10° W 06:59:26 11° WNW 07:00:50 10° WNW daylight
31 Aug - 19:50:53 10° NNW 19:55:24 80° WSW 19:59:47 10° SSE visible
01 Sep - 04:38:05 10° SSW 04:42:48 52° ESE 04:47:58 10° NE visible
01 Sep - 06:22:22 10° WSW 06:25:39 18° WNW 06:29:06 10° NNW daylight
01 Sep - 19:17:00 10° NNW 19:21:28 64° ENE 19:25:47 10° SE visible
01 Sep - 21:02:52 10° WSW 21:05:01 13° SW 21:07:07 10° SSW visible
02 Sep - 04:04:21 10° S 04:08:47 35° ESE 04:13:35 10° ENE visible
02 Sep - 05:47:41 10° SW 05:51:48 27° WNW 05:56:15 10° NNW visible
02 Sep - 18:43:23 10° N 18:47:35 39° ENE 18:51:39 10° SE visible
02 Sep - 20:27:37 10° W 20:30:49 19° SW 20:34:00 10° S visible
03 Sep - 03:30:46 10° S 03:34:42 24° SE 03:38:55 10° ENE visible
03 Sep - 05:13:20 10° SW 05:17:55 40° WNW 05:22:57 10° N visible
03 Sep - 18:10:05 10° NNE 18:13:43 24° ENE 18:17:16 10° SE daylight
03 Sep - 19:52:51 10° WNW 19:56:43 28° SW 20:00:30 10° S visible
04 Sep - 02:57:22 10° S 03:00:34 17° SE 03:03:55 10° E visible
04 Sep - 04:39:11 10° SW 04:44:01 62° WNW 04:49:21 10° NNE visible
04 Sep - 17:37:18 10° NE 17:39:55 15° ENE 17:42:28 10° ESE daylight
04 Sep - 19:18:24 10° NW 19:22:40 44° WSW 19:26:50 10° SSE visible
05 Sep - 02:24:28 10° SSE 02:26:21 12° SE 02:28:18 10° ESE visible
05 Sep - 04:05:11 10° SSW 04:10:05 87° ESE 04:15:30 10° NNE visible
05 Sep - 18:44:12 10° NW 18:48:40 70° WSW 18:53:01 10° SSE visible
